This is the latest recevied weather packets stored in our database for station/object N9CQL. If no packets are shown the sender has not sent any weather packets the latest 10 day(s).
| Time | Temp. | Humidity | Pressure | Rain* | Wind** | Luminosity | Snow |
|---|---|---|---|---|---|---|---|
| 1777854088 | 18.89° C | 51% | 1004.7 hPa | 0 mm | - | 14 W/m² | - |
| 1777853786 | 18.89° C | 51% | 1004.7 hPa | 0 mm | - | 17 W/m² | - |
| 1777853481 | 18.89° C | 50% | 1004.7 hPa | 0 mm | - | 20 W/m² | - |
| 1777853179 | 19.44° C | 50% | 1004.6 hPa | 0 mm | - | 24 W/m² | - |
| 1777852876 | 19.44° C | 49% | 1004.7 hPa | 0 mm | - | 27 W/m² | - |
| 1777852574 | 19.44° C | 48% | 1004.6 hPa | 0 mm | - | 29 W/m² | - |
| 1777852271 | 19.44° C | 48% | 1004.7 hPa | 0 mm | - | 35 W/m² | - |
| 1777851969 | 20° C | 48% | 1004.5 hPa | 0 mm | - | 47 W/m² | - |
| 1777851667 | 20° C | 47% | 1004.6 hPa | 0 mm | - | 51 W/m² | - |
| 1777851363 | 20° C | 46% | 1004.5 hPa | 0 mm | - | 66 W/m² | - |
| 1777851059 | 20° C | 46% | 1004.6 hPa | 0 mm | - | 85 W/m² | - |
| 1777850756 | 20.56° C | 46% | 1004.8 hPa | 0 mm | - | 95 W/m² | - |
| 1777850453 | 20.56° C | 46% | 1004.5 hPa | 0 mm | - | 108 W/m² | - |
| 1777850151 | 20.56° C | 45% | 1004.6 hPa | 0 mm | - | 109 W/m² | - |
| 1777849848 | 21.11° C | 45% | 1004.8 hPa | 0 mm | - | 132 W/m² | - |
| 1777849544 | 21.11° C | 44% | 1004.7 hPa | 0 mm | - | 159 W/m² | - |
| 1777849242 | 20.56° C | 45% | 1004.9 hPa | 0 mm | - | 168 W/m² | - |
| 1777848938 | 21.11° C | 44% | 1004.8 hPa | 0 mm | - | 73 W/m² | - |
| 1777848633 | 20.56° C | 44% | 1004.8 hPa | 0 mm | - | 186 W/m² | - |
| 1777848331 | 21.11° C | 44% | 1005 hPa | 0 mm | - | 186 W/m² | - |
| 1777848029 | 21.11° C | 44% | 1005 hPa | 0 mm | - | 207 W/m² | - |
| 1777847727 | 21.11° C | 43% | 1005.1 hPa | 0 mm | - | 213 W/m² | - |
| 1777847422 | 21.11° C | 43% | 1005.2 hPa | 0 mm | - | 234 W/m² | - |
| 1777847120 | 21.11° C | 44% | 1005.4 hPa | 0 mm | - | 228 W/m² | - |
| 1777846818 | 21.67° C | 45% | 1005.4 hPa | 0 mm | - | 265 W/m² | - |
* Rain latest hour (hover to see other rain measurements)
** Current wind speed in m/s (hover to see current wind gust speed)